Temperature
17 16 16 16 16 16 16 16 16 15 15 15 15 15 15 15 15 15 15 15 15 15 15 14 14 14 14 14 14 14 13 13 13 13 13 13 13 12
16 16 16 16 16 16 16 16 16 16 15 15 15 15 15 15 14 14 14 14 14 14 14 14 14 14 14 14 13 13 13 13 13 13 13 12 12 12
16 16 16 16 16 16 16 16 16 15 15 15 14 14 14 14 14 14 14 14 14 14 14 13 13 13 13 13 13 13 13 13 13 12 12 12 12 12
16 15 15 15 15 15 15 15 15 15 15 14 14 14 14 14 13 13 13 13 13 13 13 13 13 13 13 13 13 13 12 12 12 12 12 12 12 12
15 15 15 15 15 15 15 15 15 14 14 14 14 13 13 13 13 13 13 13 13 13 12 12 12 12 12 12 12 12 12 12 12 12 12 12 12 11
15 15 15 15 15 15 14 14 14 14 14 14 13 13 13 12 12 12 12 12 12 12 12 12 12 12 12 12 12 12 12 12 12 11 11 11 11 11
15 15 14 14 14 14 14 14 14 14 13 13 13 12 12 12 12 12 12 11 11 11 11 12 12 11 11 11 11 11 11 11 11 11 11 11 11 10
15 15 14 14 14 14 14 14 13 13 13 13 12 12 12 12 11 11 11 11 11 11 11 11 11 11 11 11 11 11 11 11 10 10 10 10 10 10
15 14 14 14 14 14 14 13 13 13 12 12 12 12 12 12 11 11 11 11 11 11 10 11 10 10 11 10 10 10 10 10 10 10 10 10 10 9
14 14 14 14 14 13 13 13 13 12 12 12 12 12 11 11 11 11 11 11 11 10 10 10 10 10 10 10 10 10 10 10 10 9 9 9 9 9
14 14 13 13 13 13 13 13 12 12 12 12 11 11 11 11 11 11 10 10 10 10 10 10 10 10 10 10 10 9 9 9 9 9 9 9 9 8
13 13 13 13 12 12 12 12 12 12 11 11 11 11 11 11 10 10 10 10 10 10 10 9 9 9 9 9 9 9 9 9 9 9 8 8 8 8
13 13 12 12 12 12 12 12 11 11 11 11 11 10 10 10 10 10 10 10 10 9 9 9 9 9 9 9 9 9 9 9 8 8 8 8 8 8
12 12 12 12 11 11 11 11 11 11 11 10 10 10 10 10 10 9 9 9 9 9 9 9 9 9 9 8 8 9 8 8 8 8 8 8 7 7
12 12 11 11 11 11 11 10 10 10 10 10 10 10 10 9 9 9 9 9 9 9 9 9 9 8 8 8 8 8 8 8 8 8 8 8 7 7
11 11 11 11 11 11 10 10 10 10 10 10 9 9 9 9 9 9 9 8 8 8 8 8 8 8 8 8 8 8 8 8 8 8 7 7 7 7
11 11 11 10 10 10 10 10 10 9 9 9 9 9 9 9 8 8 8 8 8 8 8 8 8 8 8 8 8 8 8 7 7 7 7 7 7 7
11 11 10 10 10 10 10 9 9 9 9 9 9 9 9 8 8 8 8 8 8 8 8 8 8 8 7 7 7 7 7 7 7 7 7 7 7 7
10 10 10 10 9 9 9 9 9 9 9 8 8 8 8 8 8 8 8 8 8 8 8 8 7 7 7 7 7 7 7 7 7 7 7 6 6 6
10 10 9 9 9 9 9 9 9 9 8 8 8 8 8 8 8 8 8 8 8 7 7 7 7 7 7 7 7 7 7 7 7 7 6 6 6 6
10 10 9 9 9 9 9 9 9 8 8 8 8 8 8 8 8 8 8 8 7 7 7 7 7 7 7 7 7 7 7 6 6 6 6 6 6 6
9 9 9 9 9 9 9 9 8 8 8 8 8 8 8 7 7 7 7 7 7 7 7 7 7 7 7 6 6 6 6 6 6 6 6 6 6 6
9 9 9 9 9 9 8 8 8 8 8 8 8 7 7 7 7 7 7 7 7 7 7 7 7 6 6 6 6 6 6 6 6 6 6 6 6 6
Wind_Speed
3 3 2 2 2 3 3 4 4 3 3 2 1 1 1 2 1 2 2 2 3 3 4 6 6 6 6 6 7 6 7 7 7 8 9 10 10 11
2 1 2 2 1 1 2 2 2 3 3 2 1 1 1 2 2 2 2 2 2 3 3 4 4 5 5 5 5 6 6 6 6 6 7 7 8 9
1 1 1 1 0 0 1 1 2 2 2 1 0 0 1 1 2 2 2 2 2 2 3 4 4 4 4 5 5 5 6 6 6 6 6 6 8 8
1 0 1 0 0 1 1 1 1 2 3 2 1 0 0 0 1 2 2 2 3 2 3 3 3 4 4 4 4 5 5 5 5 5 5 6 7 8
1 1 1 1 1 1 1 1 1 1 2 3 2 0 0 0 1 1 1 2 2 2 2 2 3 3 3 3 3 4 4 5 5 5 5 6 7 8
0 1 1 1 2 2 1 1 1 2 2 3 2 1 0 0 1 0 1 1 1 1 2 1 1 2 2 2 3 3 4 5 5 5 6 6 7 8
1 1 1 2 2 2 2 2 2 2 3 3 2 1 1 1 1 1 1 1 2 1 1 1 0 0 1 2 3 4 4 4 5 5 6 6 7 7
1 1 1 2 2 2 2 3 3 3 4 3 2 2 2 2 1 1 1 0 1 1 0 2 1 1 2 2 2 4 4 4 4 4 4 5 6 7
2 2 2 2 2 1 2 3 2 2 4 4 4 4 3 3 3 2 2 2 3 2 1 2 2 2 3 2 3 4 5 5 4 4 4 4 4 5
2 2 2 1 1 2 3 3 2 1 1 2 3 3 3 4 4 4 3 2 1 1 1 1 2 3 3 3 4 4 5 5 5 5 5 5 5 5
2 2 3 2 1 3 4 3 2 2 3 2 2 3 3 4 4 2 2 1 1 2 1 1 2 2 2 3 4 5 5 6 6 6 5 5 6 6
2 2 3 3 3 4 4 3 2 1 2 3 3 2 2 2 3 3 3 2 1 2 2 2 1 1 1 2 3 4 5 6 7 6 6 6 6 4
1 1 1 3 4 4 4 2 2 1 1 2 2 2 2 1 0 1 3 3 2 2 2 2 2 1 2 2 2 3 4 5 5 6 7 7 7 7
2 1 0 3 4 4 3 2 2 2 2 2 2 1 0 1 1 1 2 3 3 4 4 3 2 2 2 1 2 2 3 4 5 5 6 6 6 8
1 2 2 2 3 2 1 2 3 2 2 1 1 1 1 1 1 1 1 0 1 1 2 3 2 2 2 2 2 2 2 2 4 4 4 5 5 5
1 1 2 2 3 2 2 1 1 1 1 1 1 1 1 1 0 0 1 1 1 2 3 3 4 3 2 2 2 2 2 2 2 3 3 4 5 7
3 2 2 2 1 1 1 1 1 1 0 1 0 0 1 1 1 1 0 0 1 2 3 3 3 4 3 3 2 3 3 2 3 2 2 3 3 6
5 2 1 1 1 2 2 1 1 1 1 1 1 1 1 1 1 1 1 1 2 3 3 2 1 1 2 2 4 3 3 3 2 2 2 3 4 4
3 2 2 2 2 2 2 2 2 2 1 1 2 2 2 1 1 1 1 2 2 3 3 2 1 1 1 3 4 4 4 3 2 2 3 3 4 4
2 3 3 3 3 2 2 2 2 2 2 2 2 2 2 2 2 2 2 3 3 3 3 2 2 3 4 4 3 3 5 3 3 3 2 2 2 4
4 3 3 3 3 3 3 3 3 3 2 2 3 3 2 2 3 3 3 4 3 3 4 4 5 5 2 1 1 2 3 6 6 3 3 2 2 1
4 4 4 4 3 3 3 3 3 3 3 3 3 3 3 2 3 4 3 3 3 4 4 4 2 1 2 2 3 3 3 3 5 7 7 6 4 4
5 4 4 3 3 3 3 3 4 3 3 3 3 3 2 2 3 3 3 3 3 3 3 2 1 1 2 2 2 2 3 3 2 1 3 8 11 12
Wind_Direction
227 227 234 244 219 211 190 179 182 213 243 235 234 306 117 121 145 161 170 186 197 208 212 211 215 219 213 212 210 206 210 215 216 220 223 221 220 220
216 210 244 251 225 191 183 188 183 186 213 225 219 225 135 108 84 100 137 163 182 205 209 194 193 200 198 200 198 192 190 195 202 209 212 211 211 212
247 209 255 261 69 200 178 177 171 154 178 249 295 70 69 81 64 76 87 96 107 152 172 174 185 186 183 183 183 189 192 194 197 202 204 206 210 210
260 219 248 272 332 184 153 156 164 155 155 181 214 9 15 105 89 75 82 85 96 102 129 146 153 156 163 167 168 177 185 188 191 196 204 207 208 210
218 186 209 155 187 172 143 162 178 161 152 160 181 218 276 133 76 48 58 65 79 84 103 139 151 158 165 172 177 181 185 188 195 203 210 206 203 203
148 164 171 164 173 176 165 166 153 136 136 147 159 162 191 262 122 80 10 355 353 49 64 75 149 166 180 193 196 186 185 190 196 199 200 198 198 200
46 94 128 119 120 145 149 160 150 146 146 148 161 169 181 152 202 214 220 305 321 311 11 349 27 32 259 227 214 205 192 193 198 199 200 200 201 200
92 50 90 91 91 114 141 153 156 160 165 164 177 193 205 201 189 185 181 226 276 269 296 302 302 288 270 235 225 207 194 187 183 186 192 200 205 205
113 96 83 67 86 108 94 88 101 141 167 169 179 200 199 201 185 194 216 220 237 226 196 273 280 272 261 253 241 226 213 205 197 191 187 188 193 200
104 113 105 57 61 107 105 84 61 44 176 165 185 204 202 196 191 196 205 207 268 259 166 231 258 258 260 253 254 242 229 217 215 212 206 204 205 210
98 95 102 85 68 109 108 100 67 27 43 92 146 165 165 166 158 130 137 145 276 272 231 185 232 258 271 263 252 242 237 233 228 220 218 216 217 218
63 67 77 84 83 109 114 115 106 50 51 52 55 65 99 142 153 160 173 179 212 254 230 183 200 170 273 273 258 250 243 241 234 229 228 226 220 214
99 60 28 70 89 102 108 120 157 139 98 88 68 54 47 42 92 180 185 181 193 242 222 179 190 187 203 262 283 254 242 244 243 239 235 227 221 208
153 188 88 82 81 95 103 91 96 94 95 88 78 49 346 298 287 265 208 206 215 226 214 188 189 195 190 233 265 273 258 245 232 237 240 235 232 226
154 147 129 104 90 82 84 96 102 100 107 115 180 244 256 264 304 342 348 310 269 258 201 197 190 193 190 209 230 239 261 262 228 228 234 227 226 218
85 94 95 81 81 61 35 33 59 137 157 188 247 272 323 360 326 302 320 344 347 318 296 253 212 190 206 222 212 235 226 229 232 224 226 235 237 226
124 85 67 59 45 15 359 347 345 4 299 285 236 309 311 290 280 269 228 270 261 284 296 306 267 229 211 198 216 233 234 248 236 216 208 234 244 234
129 126 161 185 211 228 236 266 266 256 249 230 220 226 241 262 279 288 254 221 244 259 266 272 319 2 348 299 223 215 228 238 239 214 196 211 248 246
145 174 196 210 219 225 229 235 250 257 247 225 230 236 239 251 264 273 272 268 264 263 264 254 221 179 238 274 283 224 209 231 214 212 213 210 228 242
186 202 214 219 219 227 234 242 255 263 247 241 241 245 238 239 255 270 259 253 259 263 274 267 235 216 219 232 243 263 228 204 199 213 220 223 246 263
212 221 224 221 221 223 226 232 237 240 243 239 242 245 245 241 251 256 257 257 247 246 257 259 252 237 202 105 308 283 267 234 217 203 199 198 229 249
216 221 227 223 221 221 222 224 228 236 238 237 243 243 243 244 250 255 258 257 250 248 255 266 277 186 153 199 245 261 273 281 258 244 230 218 192 210
218 219 225 226 225 224 223 227 229 236 237 236 241 243 243 250 258 259 260 255 262 267 267 272 284 240 218 215 228 248 263 273 273 277 272 260 244 243
Height
1546 1546 1546 1546 1547 1547 1547 1547 1548 1547 1547 1547 1547 1547 1547 1547 1547 1546 1546 1545 1545 1545 1544 1544 1544 1544 1544 1544 1545 1545 1545 1546 1546 1546 1547 1548 1548 1549
1543 1543 1543 1543 1543 1543 1543 1544 1544 1544 1544 1544 1544 1544 1544 1544 1544 1543 1542 1542 1542 1541 1541 1540 1540 1541 1540 1541 1541 1541 1541 1542 1542 1542 1543 1543 1544 1544
1540 1539 1539 1540 1540 1540 1540 1541 1541 1541 1540 1541 1541 1541 1541 1541 1541 1540 1540 1539 1539 1538 1538 1537 1537 1537 1537 1537 1537 1537 1538 1538 1538 1538 1538 1539 1539 1540
1536 1536 1536 1536 1536 1537 1537 1537 1538 1538 1538 1537 1538 1538 1538 1538 1538 1537 1537 1536 1536 1536 1535 1535 1534 1534 1534 1534 1534 1534 1534 1534 1534 1535 1535 1535 1535 1536
1534 1533 1533 1533 1533 1533 1534 1534 1534 1535 1535 1535 1534 1535 1535 1536 1535 1535 1534 1534 1534 1533 1533 1533 1532 1532 1531 1531 1531 1531 1531 1531 1531 1531 1531 1531 1531 1532
1532 1531 1531 1531 1530 1531 1531 1531 1531 1532 1532 1532 1532 1532 1533 1533 1533 1532 1532 1532 1532 1532 1531 1531 1530 1530 1529 1529 1529 1529 1528 1528 1528 1528 1528 1528 1528 1528
1530 1529 1529 1529 1528 1529 1529 1529 1529 1529 1529 1529 1529 1529 1530 1530 1530 1530 1530 1530 1529 1530 1529 1529 1528 1528 1527 1527 1526 1526 1526 1525 1525 1525 1525 1524 1524 1524
1529 1528 1528 1527 1527 1527 1527 1527 1527 1527 1526 1526 1527 1527 1527 1527 1528 1528 1528 1527 1527 1528 1527 1527 1526 1526 1525 1525 1524 1523 1523 1523 1522 1522 1522 1521 1521 1521
1527 1527 1526 1526 1526 1525 1525 1525 1525 1525 1525 1525 1525 1525 1525 1525 1525 1525 1525 1525 1525 1525 1525 1524 1524 1523 1523 1522 1522 1521 1521 1520 1520 1519 1519 1519 1518 1518
1526 1526 1525 1525 1524 1524 1523 1523 1523 1523 1523 1523 1523 1523 1524 1524 1523 1523 1523 1523 1523 1523 1523 1522 1521 1521 1521 1521 1520 1519 1519 1518 1518 1517 1516 1516 1516 1516
1525 1524 1524 1523 1523 1523 1522 1522 1522 1522 1522 1522 1522 1522 1522 1522 1521 1521 1521 1520 1520 1520 1520 1520 1519 1519 1518 1518 1518 1517 1517 1516 1515 1515 1514 1513 1513 1514
1523 1523 1523 1523 1523 1522 1521 1521 1520 1520 1520 1520 1520 1520 1520 1519 1519 1519 1519 1518 1518 1518 1518 1517 1517 1516 1516 1515 1515 1515 1514 1513 1513 1512 1512 1511 1511 1511
1522 1522 1522 1522 1522 1521 1521 1520 1520 1520 1519 1519 1519 1519 1518 1518 1517 1517 1517 1517 1516 1516 1516 1515 1514 1514 1514 1513 1512 1512 1512 1511 1510 1510 1510 1509 1509 1509
1521 1521 1521 1521 1521 1521 1520 1520 1519 1519 1518 1518 1518 1517 1517 1516 1516 1515 1515 1515 1515 1515 1514 1514 1512 1512 1511 1510 1510 1509 1509 1508 1508 1508 1507 1507 1507 1507
1520 1520 1520 1520 1520 1520 1519 1519 1518 1518 1517 1517 1516 1516 1516 1516 1515 1514 1514 1513 1513 1512 1512 1511 1511 1510 1509 1509 1508 1507 1506 1506 1506 1505 1505 1504 1504 1504
1519 1519 1519 1519 1519 1518 1518 1518 1517 1517 1516 1516 1515 1515 1515 1514 1513 1513 1512 1511 1511 1510 1510 1509 1508 1508 1507 1506 1505 1504 1504 1503 1503 1502 1502 1502 1502 1501
1518 1518 1518 1518 1517 1517 1516 1516 1516 1516 1515 1514 1514 1513 1513 1512 1512 1511 1511 1510 1509 1508 1507 1507 1506 1505 1505 1504 1503 1502 1501 1501 1500 1500 1499 1499 1499 1499
1517 1516 1516 1516 1515 1515 1515 1514 1514 1514 1513 1513 1512 1512 1511 1510 1510 1509 1509 1508 1507 1506 1505 1504 1503 1502 1502 1501 1501 1499 1499 1498 1498 1497 1497 1496 1496 1496
1514 1514 1514 1514 1514 1513 1513 1512 1512 1512 1512 1511 1510 1510 1509 1509 1508 1507 1506 1505 1505 1504 1503 1502 1501 1500 1499 1497 1497 1497 1496 1495 1495 1494 1494 1494 1493 1493
1512 1512 1512 1512 1512 1511 1511 1511 1510 1510 1509 1508 1508 1507 1507 1507 1506 1505 1504 1503 1502 1501 1500 1499 1498 1497 1496 1496 1494 1494 1494 1493 1492 1491 1491 1490 1490 1491
1510 1510 1510 1509 1509 1509 1509 1508 1508 1507 1506 1506 1505 1505 1505 1504 1503 1503 1502 1501 1500 1499 1497 1496 1496 1495 1494 1494 1492 1491 1491 1490 1490 1489 1488 1488 1487 1487
1507 1507 1507 1507 1506 1506 1506 1505 1505 1504 1504 1503 1503 1502 1502 1501 1501 1500 1499 1498 1497 1496 1495 1494 1494 1493 1492 1490 1489 1488 1488 1487 1487 1487 1486 1486 1485 1484
1504 1504 1503 1503 1503 1503 1503 1502 1502 1501 1501 1500 1500 1499 1498 1498 1497 1497 1496 1495 1494 1493 1492 1491 1490 1489 1488 1488 1487 1486 1485 1484 1484 1483 1483 1483 1483 1482